CW9372 Weather Reports


time (UTC)temp
C
wind
direction
speed
KPH
gust
KPH
rain 1hr
cm
rain 24hr
cm
rain mn
cm
humidity
%
barometer
mb
20260505093212 7 280 0.0 4.8 0.00 0.03 0.00 77 1003.8
20260505093034 7 280 0.0 4.8 0.00 0.03 0.00 77 1003.8
20260505092926 7 158 1.6 6.4 0.00 0.03 0.00 76 1003.8
20260505092837 7 170 1.6 6.4 0.00 0.03 0.00 76 1003.8
20260505092728 7 312 1.6 6.4 0.00 0.03 0.00 76 1003.8
20260505092639 7 280 1.6 6.4 0.00 0.03 0.00 76 1003.7
20260505092529 7 288 1.6 6.4 0.00 0.03 0.00 75 1003.8
20260505092439 7 295 0.0 6.4 0.00 0.03 0.00 75 1003.8
20260505092348 8 290 1.6 6.4 0.00 0.03 0.00 75 1003.8
20260505092258 8 290 1.6 6.4 0.00 0.03 0.00 74 1003.7
20260505092126 8 311 1.6 6.4 0.00 0.03 0.00 74 1003.8
20260505092032 8 293 1.6 3.2 0.00 0.03 0.00 74 1003.8
20260505091924 8 326 0.0 3.2 0.00 0.03 0.00 74 1003.7
20260505091835 8 325 0.0 3.2 0.00 0.03 0.00 74 1003.7
20260505091727 8 326 1.6 3.2 0.00 0.03 0.00 74 1003.6
20260505091641 8 326 1.6 3.2 0.00 0.03 0.00 74 1003.6
20260505091547 8 340 0.0 3.2 0.00 0.03 0.00 73 1003.6
20260505091437 8 282 0.0 3.2 0.00 0.03 0.00 73 1003.6
20260505091348 8 282 0.0 3.2 0.00 0.03 0.00 73 1003.6
20260505091238 8 281 1.6 3.2 0.00 0.03 0.00 73 1003.6
20260505091129 8 281 1.6 3.2 0.00 0.03 0.00 72 1003.6
20260505091035 8 252 1.6 3.2 0.00 0.03 0.00 72 1003.7
20260505090927 8 288 0.0 3.2 0.00 0.03 0.00 72 1003.6
20260505090838 8 276 0.0 3.2 0.00 0.03 0.00 72 1003.6
20260505090730 8 276 0.0 3.2 0.00 0.03 0.00 72 1003.7
20260505090626 8 304 0.0 3.2 0.00 0.03 0.00 71 1003.7
20260505090533 8 304 1.6 3.2 0.00 0.03 0.00 71 1003.6
20260505090443 8 307 1.6 3.2 0.00 0.03 0.00 71 1003.7
20260505090334 8 309 1.6 3.2 0.00 0.03 0.00 71 1003.6
20260505090225 8 349 0.0 3.2 0.00 0.03 0.00 70 1003.5
20260505090137 8 357 0.0 3.2 0.00 0.03 0.00 70 1003.5
20260505090043 8 106 0.0 1.6 0.00 0.03 0.00 70 1003.5
20260505085934 9 106 0.0 3.2 0.00 0.03 0.00 70 1003.4
20260505085845 9 106 0.0 3.2 0.00 0.03 0.00 70 1003.4
20260505085800 9 119 0.0 3.2 0.00 0.03 0.00 69 1003.4
20260505085631 9 290 0.0 3.2 0.00 0.03 0.00 69 1003.3
20260505085537 9 290 0.0 3.2 0.00 0.03 0.00 69 1003.3
20260505085448 9 290 0.0 3.2 0.00 0.03 0.00 69 1003.3
20260505085358 9 290 0.0 3.2 0.00 0.03 0.00 69 1003.3
20260505085248 9 290 1.6 3.2 0.00 0.03 0.00 69 1003.3
20260505085138 9 290 1.6 3.2 0.00 0.03 0.00 68 1003.3
20260505085044 9 291 1.6 3.2 0.00 0.03 0.00 68 1003.3
20260505084954 9 249 0.0 3.2 0.00 0.03 0.00 68 1003.2
20260505084825 9 246 0.0 4.8 0.00 0.03 0.00 68 1003.2
20260505084736 10 243 0.0 4.8 0.00 0.03 0.00 67 1003.1
20260505084651 10 238 0.0 4.8 0.00 0.03 0.00 67 1003.2
20260505084358 10 352 0.0 4.8 0.00 0.03 0.00 66 1003.0
20260505084228 10 286 0.0 4.8 0.00 0.03 0.00 66 1002.9
20260505084139 10 333 1.6 4.8 0.00 0.03 0.00 66 1002.8
20260505084025 10 3 1.6 4.8 0.00 0.03 0.00 66 1002.8
20260505083934 10 319 0.0 3.2 0.00 0.03 0.00 66 1002.7
20260505083825 10 304 0.0 4.8 0.00 0.03 0.00 66 1002.7
20260505083736 10 304 0.0 4.8 0.00 0.03 0.00 65 1002.7
20260505083631 10 288 0.0 4.8 0.00 0.03 0.00 65 1002.6
20260505083536 10 11 0.0 4.8 0.00 0.03 0.00 65 1002.6
20260505083428 10 11 0.0 4.8 0.00 0.03 0.00 65 1002.7
20260505083338 10 334 0.0 4.8 0.00 0.03 0.00 65 1002.7
20260505083230 10 333 0.0 4.8 0.00 0.03 0.00 65 1002.7
20260505083141 10 333 0.0 4.8 0.00 0.03 0.00 65 1002.8
20260505083028 10 333 0.0 4.8 0.00 0.03 0.00 64 1002.8
20260505082939 10 333 0.0 4.8 0.00 0.03 0.00 64 1002.8
20260505082830 10 164 0.0 3.2 0.00 0.03 0.00 64 1002.8
20260505082726 10 153 0.0 3.2 0.00 0.03 0.00 64 1002.7
20260505082638 10 271 0.0 0.0 0.00 0.03 0.00 64 1002.7
20260505082524 10 271 0.0 3.2 0.00 0.03 0.00 64 1002.7
20260505082437 10 271 0.0 3.2 0.00 0.03 0.00 64 1002.8
20260505082327 10 271 0.0 3.2 0.00 0.03 0.00 64 1002.8
20260505082239 10 271 0.0 3.2 0.00 0.03 0.00 63 1002.7
20260505082131 10 271 0.0 3.2 0.00 0.03 0.00 64 1002.8
20260505082037 10 309 0.0 3.2 0.00 0.03 0.00 64 1002.7
20260505081932 10 309 0.0 3.2 0.00 0.03 0.00 63 1002.7
20260505081843 10 309 0.0 3.2 0.00 0.03 0.00 63 1002.7
20260505081733 10 18 1.6 6.4 0.00 0.03 0.00 63 1002.6
20260505081643 10 323 1.6 6.4 0.00 0.03 0.00 63 1002.6
20260505081529 10 198 0.0 6.4 0.00 0.03 0.00 63 1002.5
20260505081441 10 69 0.0 6.4 0.00 0.03 0.00 63 1002.6
20260505081333 10 338 0.0 6.4 0.00 0.03 0.00 63 1002.6
20260505081245 10 338 0.0 6.4 0.00 0.03 0.00 62 1002.6
20260505081156 10 282 0.0 6.4 0.00 0.03 0.00 63 1002.6
20260505081040 10 282 1.6 6.4 0.00 0.03 0.00 62 1002.6
20260505080935 10 290 1.6 6.4 0.00 0.03 0.00 63 1002.5
20260505080826 10 65 0.0 4.8 0.00 0.03 0.00 62 1002.5
20260505080737 10 271 0.0 4.8 0.00 0.03 0.00 62 1002.4
20260505080647 10 271 0.0 4.8 0.00 0.03 0.00 62 1002.3
20260505080531 10 271 0.0 4.8 0.00 0.03 0.00 62 1002.4
20260505080443 10 271 0.0 6.4 0.00 0.03 0.00 62 1002.4
20260505080335 10 240 1.6 6.4 0.00 0.03 0.00 62 1002.3
20260505080246 10 239 1.6 6.4 0.00 0.03 0.00 62 1002.2
20260505080158 10 301 1.6 6.4 0.00 0.03 0.00 62 1002.3
20260505080026 10 322 0.0 6.4 0.00 0.03 0.00 62 1002.2
20260505075936 10 322 0.0 6.4 0.00 0.03 0.00 62 1002.2
20260505075848 10 322 0.0 6.4 0.00 0.03 0.00 62 1002.2
20260505075737 10 323 1.6 6.4 0.00 0.03 0.00 62 1002.2
20260505075627 10 330 1.6 6.4 0.00 0.03 0.00 62 1002.2
20260505075532 10 32 1.6 6.4 0.00 0.03 0.00 62 1002.2
20260505075442 10 93 1.6 6.4 0.00 0.03 0.00 62 1002.2
20260505075356 10 13 1.6 6.4 0.00 0.03 0.00 62 1002.2
20260505075307 10 34 0.0 6.4 0.00 0.03 0.00 62 1002.2
20260505075218 10 302 0.0 6.4 0.00 0.03 0.00 62 1002.3
20260505075107 11 311 1.6 6.4 0.00 0.03 0.00 61 1002.2
20260505074956 11 248 1.6 6.4 0.00 0.03 0.00 61 1002.3
20260505074831 11 354 3.2 6.4 0.00 0.03 0.00 61 1002.3
20260505074743 11 342 3.2 6.4 0.00 0.03 0.00 61 1002.2
20260505074634 11 299 1.6 4.8 0.00 0.03 0.00 61 1002.2
20260505074539 11 336 1.6 3.2 0.00 0.03 0.00 60 1002.3
20260505074451 11 3 1.6 4.8 0.00 0.03 0.00 60 1002.3
20260505074340 11 284 1.6 4.8 0.00 0.03 0.00 60 1002.3
20260505074254 11 354 1.6 4.8 0.00 0.03 0.00 60 1002.3
20260505074204 11 293 1.6 4.8 0.00 0.03 0.00 60 1002.3
20260505074050 11 278 1.6 4.8 0.00 0.03 0.00 60 1002.2
20260505073939 11 356 0.0 6.4 0.00 0.03 0.00 59 1002.3
20260505073834 11 356 1.6 6.4 0.00 0.03 0.00 59 1002.3
20260505073745 11 359 1.6 6.4 0.00 0.03 0.00 59 1002.3
20260505073658 11 290 1.6 6.4 0.00 0.03 0.00 60 1002.2
20260505073543 11 350 0.0 6.4 0.00 0.03 0.00 60 1002.3
20260505073435 11 13 1.6 6.4 0.00 0.03 0.00 60 1002.3
20260505073327 11 13 0.0 6.4 0.00 0.03 0.00 60 1002.2
20260505073238 11 334 1.6 6.4 0.00 0.03 0.00 60 1002.2
20260505073151 11 334 3.2 6.4 0.00 0.03 0.00 60 1002.2
20260505073058 11 321 1.6 4.8 0.00 0.03 0.00 59 1002.1
20260505072928 11 290 0.0 6.4 0.00 0.03 0.00 60 1002.1
20260505072843 11 58 0.0 8.0 0.00 0.03 0.00 60 1002.1
20260505072732 11 342 1.6 8.0 0.00 0.03 0.00 59 1002.1
20260505072643 11 342 1.6 8.0 0.00 0.03 0.00 60 1002.2
20260505072528 11 344 1.6 8.0 0.00 0.03 0.00 60 1002.2
20260505072438 11 291 1.6 8.0 0.00 0.03 0.00 59 1002.2
20260505072328 11 340 1.6 8.0 0.00 0.03 0.00 59 1002.1
20260505072238 11 262 3.2 9.7 0.00 0.03 0.00 58 1002.2
20260505072129 11 283 3.2 9.7 0.00 0.03 0.00 59 1002.1
20260505072035 11 306 1.6 9.7 0.00 0.03 0.00 59 1002.1
20260505071952 11 300 1.6 9.7 0.00 0.03 0.00 60 1002.1
20260505071903 11 356 1.6 9.7 0.00 0.03 0.00 59 1002.0
20260505071816 11 10 0.0 9.7 0.00 0.03 0.00 61 1002.0
20260505071706 11 360 1.6 9.7 0.00 0.03 0.00 60 1002.1
20260505071552 11 352 3.2 9.7 0.00 0.03 0.00 60 1002.1
20260505071441 11 355 4.8 9.7 0.00 0.03 0.00 60 1002.1
20260505071332 11 296 3.2 9.7 0.00 0.03 0.00 59 1002.0
20260505071224 11 330 1.6 6.4 0.00 0.03 0.00 61 1002.1
20260505071135 11 330 1.6 6.4 0.00 0.03 0.00 61 1002.1
20260505071041 11 297 3.2 6.4 0.00 0.03 0.00 61 1002.1
20260505070954 11 59 3.2 6.4 0.00 0.03 0.00 61 1002.1
20260505070909 11 314 1.6 8.0 0.00 0.03 0.00 61 1002.2
20260505070759 11 338 1.6 8.0 0.00 0.03 0.00 62 1002.3
20260505070711 11 311 1.6 8.0 0.00 0.03 0.00 61 1002.2
20260505070556 11 286 1.6 8.0 0.00 0.03 0.00 62 1002.3
20260505070445 11 303 1.6 8.0 0.00 0.03 0.00 62 1002.3
20260505070335 11 350 1.6 8.0 0.00 0.03 0.00 62 1002.2
20260505070226 11 333 1.6 8.0 0.00 0.03 0.00 62 1002.4
20260505070137 11 21 1.6 8.0 0.00 0.03 0.00 63 1002.4
20260505070044 11 293 1.6 8.0 0.00 0.03 0.00 64 1002.4
20260505065935 11 25 1.6 8.0 0.00 0.03 0.00 63 1002.4
20260505065826 11 303 3.2 8.0 0.00 0.03 0.00 62 1002.4
20260505065737 11 300 3.2 8.0 0.00 0.03 0.00 62 1002.3
20260505065627 11 278 3.2 8.0 0.00 0.03 0.00 64 1002.1
20260505065532 11 251 3.2 8.0 0.00 0.03 0.00 65 1002.1
20260505065445 11 229 1.6 8.0 0.00 0.03 0.00 66 1002.1
20260505065334 10 296 1.6 8.0 0.00 0.03 0.00 69 1002.2
20260505065226 10 23 1.6 8.0 0.00 0.03 0.00 70 1002.0
20260505065136 10 4 1.6 8.0 0.00 0.03 0.00 70 1002.0
20260505065042 10 300 1.6 8.0 0.00 0.03 0.00 73 1002.1
20260505064953 10 4 0.0 1.6 0.00 0.03 0.00 73 1002.1
20260505064826 10 75 0.0 1.6 0.00 0.03 0.00 77 1002.2
20260505064738 10 221 0.0 0.0 0.00 0.03 0.00 76 1002.2
20260505064649 10 213 0.0 0.0 0.00 0.03 0.00 76 1002.2
20260505064535 10 183 0.0 0.0 0.00 0.03 0.00 76 1002.2
20260505064426 10 200 0.0 0.0 0.00 0.03 0.00 77 1002.2
20260505064337 10 200 0.0 0.0 0.00 0.03 0.00 78 1002.2
20260505064248 10 246 0.0 0.0 0.00 0.03 0.00 79 1002.2
20260505064159 10 246 0.0 0.0 0.00 0.03 0.00 79 1002.4
20260505064044 10 246 0.0 0.0 0.00 0.03 0.00 79 1002.3
20260505063935 10 245 0.0 0.0 0.00 0.03 0.00 79 1002.1
20260505063830 10 171 0.0 0.0 0.00 0.03 0.00 79 1001.9
20260505063741 10 171 0.0 0.0 0.00 0.03 0.00 79 1001.8
20260505063653 10 170 0.0 0.0 0.00 0.03 0.00 78 1001.8
20260505063604 10 165 0.0 0.0 0.00 0.03 0.00 79 1001.7
20260505063456 10 210 0.0 0.0 0.00 0.03 0.00 79 1001.7
20260505063405 10 230 0.0 0.0 0.00 0.03 0.00 78 1001.8
20260505063315 10 230 0.0 0.0 0.00 0.03 0.00 78 1001.8
20260505063206 10 193 0.0 0.0 0.00 0.03 0.00 78 1001.7
20260505063117 10 212 0.0 0.0 0.00 0.03 0.00 77 1001.8
20260505063001 10 212 0.0 0.0 0.00 0.03 0.00 78 1001.8
20260505062914 10 212 0.0 0.0 0.00 0.03 0.00 78 1001.8
20260505062804 10 214 0.0 1.6 0.00 0.03 0.00 78 1001.9
20260505062638 10 214 0.0 1.6 0.00 0.03 0.00 78 1001.9
20260505062544 10 214 0.0 3.2 0.00 0.03 0.00 78 1002.1
20260505062435 10 214 0.0 3.2 0.00 0.03 0.00 78 1002.0
20260505062325 10 214 0.0 3.2 0.00 0.03 0.00 77 1002.0
20260505062238 10 214 0.0 3.2 0.00 0.03 0.00 77 1002.1
20260505062148 10 214 0.0 3.2 0.00 0.03 0.00 78 1002.1
20260505062059 10 214 0.0 3.2 0.00 0.03 0.00 78 1001.9
20260505061929 10 214 0.0 3.2 0.00 0.03 0.00 77 1001.8
20260505061840 10 214 0.0 3.2 0.00 0.03 0.00 78 1001.8
20260505061737 11 196 0.0 3.2 0.00 0.03 0.00 78 1001.7
20260505061625 11 220 0.0 1.6 0.00 0.03 0.00 78 1001.7
20260505061530 11 247 0.0 1.6 0.00 0.03 0.00 78 1001.7
20260505061441 11 251 0.0 1.6 0.00 0.03 0.00 78 1001.9
20260505061332 11 251 0.0 1.6 0.00 0.03 0.00 79 1001.9
20260505061243 11 251 0.0 1.6 0.00 0.03 0.00 79 1001.8
20260505061153 11 244 0.0 1.6 0.00 0.03 0.00 80 1001.6
20260505061040 11 175 0.0 1.6 0.00 0.03 0.00 79 1001.5
20260505060930 11 167 0.0 1.6 0.00 0.03 0.00 80 1001.5
20260505060826 11 167 0.0 1.6 0.00 0.03 0.00 80 1001.5
20260505060736 11 167 0.0 3.2 0.00 0.03 0.00 79 1001.5
20260505060651 11 167 0.0 3.2 0.00 0.03 0.00 79 1001.5
20260505060539 11 214 0.0 3.2 0.00 0.03 0.00 79 1001.5
20260505060453 11 214 0.0 3.2 0.00 0.03 0.00 79 1001.5
20260505060404 11 238 0.0 3.2 0.00 0.03 0.00 79 1001.5
20260505060235 11 294 0.0 3.2 0.00 0.03 0.00 79 1001.4
20260505060126 11 294 0.0 3.2 0.00 0.03 0.00 78 1001.4
20260505060033 11 294 0.0 3.2 0.00 0.03 0.00 79 1001.6
20260505055943 11 294 0.0 6.4 0.00 0.03 0.00 79 1001.6
20260505055838 11 296 0.0 6.4 0.00 0.03 0.00 80 1001.7
20260505055729 11 296 0.0 6.4 0.00 0.03 0.00 79 1001.6
20260505055641 11 296 0.0 6.4 0.00 0.03 0.00 80 1001.7
20260505055526 11 296 0.0 6.4 0.00 0.03 0.00 79 1001.7
20260505055436 11 296 0.0 6.4 0.00 0.03 0.00 79 1001.7
20260505055328 11 233 1.6 6.4 0.00 0.03 0.00 79 1001.7
20260505055239 11 233 1.6 6.4 0.00 0.03 0.00 79 1001.6
20260505055151 11 191 1.6 6.4 0.00 0.03 0.00 79 1001.6
20260505055033 11 219 0.0 4.8 0.00 0.03 0.00 79 1001.6
20260505054839 11 229 1.6 6.4 0.00 0.03 0.00 80 1001.6
20260505054728 11 231 1.6 6.4 0.00 0.03 0.00 80 1001.7
20260505054640 11 203 1.6 6.4 0.00 0.03 0.00 80 1001.6
20260505054526 11 217 1.6 6.4 0.00 0.03 0.00 79 1001.5
20260505054436 11 212 1.6 6.4 0.00 0.03 0.00 80 1001.6
20260505054326 11 233 1.6 6.4 0.00 0.03 0.00 79 1001.6
20260505054238 11 235 1.6 6.4 0.00 0.03 0.00 79 1001.7
20260505054129 11 220 0.0 6.4 0.00 0.03 0.00 80 1001.6
20260505054034 11 245 0.0 0.0 0.00 0.03 0.00 79 1001.6
20260505053929 11 245 0.0 0.0 0.00 0.03 0.00 80 1001.5
20260505053840 11 197 0.0 0.0 0.00 0.03 0.00 80 1001.5
20260505053730 11 241 0.0 0.0 0.00 0.03 0.00 80 1001.5
20260505053640 11 241 0.0 0.0 0.00 0.03 0.00 80 1001.5
20260505053527 11 236 0.0 0.0 0.00 0.03 0.00 80 1001.5
20260505053438 11 278 0.0 3.2 0.00 0.03 0.00 80 1001.5
20260505053351 11 294 0.0 3.2 0.00 0.03 0.00 80 1001.5
20260505053301 11 295 0.0 3.2 0.00 0.03 0.00 80 1001.4
20260505053151 11 228 0.0 3.2 0.00 0.03 0.00 80 1001.4
20260505053102 11 228 0.0 3.2 0.00 0.03 0.00 80 1001.3
20260505052935 11 229 0.0 6.4 0.00 0.03 0.00 80 1001.4
20260505052827 11 211 0.0 6.4 0.00 0.03 0.00 80 1001.5
20260505052738 11 204 0.0 6.4 0.00 0.03 0.00 80 1001.5
20260505052648 11 233 0.0 6.4 0.00 0.03 0.00 80 1001.5
20260505052533 11 244 0.0 6.4 0.00 0.03 0.00 80 1001.5
20260505052443 11 302 0.0 6.4 0.00 0.03 0.00 80 1001.5
20260505052355 11 302 1.6 6.4 0.00 0.03 0.00 80 1001.5
20260505052306 11 230 1.6 6.4 0.00 0.03 0.00 80 1001.5
20260505052217 11 155 1.6 6.4 0.00 0.03 0.00 80 1001.5
20260505052106 11 228 1.6 6.4 0.00 0.03 0.00 80 1001.5
20260505052012 11 250 3.2 6.4 0.00 0.03 0.00 80 1001.5
20260505051923 11 242 3.2 6.4 0.00 0.03 0.00 80 1001.3
20260505051838 11 223 1.6 6.4 0.00 0.03 0.00 80 1001.3
20260505051729 11 213 0.0 4.8 0.00 0.03 0.00 80 1001.3
20260505051619 11 203 0.0 4.8 0.00 0.03 0.00 80 1001.3
20260505051521 11 209 0.0 6.4 0.00 0.03 0.00 80 1001.2
20260505051432 11 212 0.0 6.4 0.00 0.03 0.00 80 1001.1
20260505051322 11 212 0.0 6.4 0.00 0.03 0.00 80 1001.1
20260505051208 11 252 0.0 6.4 0.00 0.03 0.00 80 1001.0
20260505051119 11 167 1.6 6.4 0.00 0.03 0.00 80 1001.0
20260505051004 12 207 1.6 6.4 0.00 0.03 0.00 80 1001.1
20260505050834 12 217 3.2 6.4 0.00 0.03 0.00 80 1001.1
20260505050746 12 218 3.2 6.4 0.00 0.03 0.00 80 1001.0
20260505050657 12 247 1.6 3.2 0.00 0.03 0.00 80 1001.0
20260505050545 12 206 0.0 3.2 0.00 0.03 0.00 80 1001.0
20260505050436 12 229 0.0 1.6 0.00 0.03 0.00 80 1000.9
20260505050325 12 227 0.0 4.8 0.00 0.03 0.00 80 1000.9
20260505050237 12 227 0.0 6.4 0.00 0.03 0.00 80 1000.9
20260505050128 12 227 0.0 6.4 0.00 0.03 0.00 79 1000.8
20260505041724 13 174 4.8 11.3 0.00 0.03 0.00 76 1000.8
20260505041636 13 186 3.2 11.3 0.00 0.03 0.00 76 1000.8
20260505041540 13 240 1.6 9.7 0.00 0.03 0.00 76 1000.8
20260505041431 13 282 0.0 12.9 0.00 0.03 0.00 76 1000.8
20260505041326 13 1 0.0 12.9 0.00 0.03 0.00 76 1000.8
20260505041237 13 311 0.0 12.9 0.00 0.03 0.00 76 1000.8
20260505041151 13 233 0.0 12.9 0.00 0.03 0.00 76 1000.8
20260505041055 13 102 1.6 12.9 0.00 0.03 0.00 76 1000.7
20260505040828 13 310 4.8 12.9 0.00 0.03 0.00 76 1000.6
20260505040738 13 231 6.4 12.9 0.00 0.03 0.00 76 1000.6
20260505040648 13 217 4.8 12.9 0.00 0.03 0.00 76 1000.6
20260505040604 13 304 3.2 12.9 0.00 0.03 0.00 76 1000.5
20260505040509 13 248 3.2 9.7 0.00 0.03 0.00 76 1000.4
20260505040400 13 165 3.2 9.7 0.00 0.03 0.00 75 1000.3
20260505040312 13 231 3.2 9.7 0.00 0.03 0.00 75 1000.3
20260505040223 13 242 3.2 9.7 0.00 0.03 0.00 75 1000.4
20260505040114 13 212 3.2 8.0 0.00 0.03 0.00 75 1000.3
20260505035935 13 223 3.2 8.0 0.00 0.03 0.00 75 1000.4
20260505035825 13 120 1.6 8.0 0.00 0.03 0.00 75 1000.4
20260505035736 13 170 1.6 8.0 0.00 0.03 0.00 75 1000.4
20260505035648 13 215 3.2 9.7 0.00 0.03 0.00 75 1000.4
20260505035554 13 167 1.6 12.9 0.00 0.03 0.03 75 1000.5
20260505035429 13 231 1.6 12.9 0.00 0.03 0.03 75 1000.4
20260505035336 13 240 1.6 12.9 0.00 0.03 0.03 75 1000.4
20260505035227 13 316 1.6 12.9 0.00 0.03 0.03 75 1000.4
20260505035137 13 316 1.6 12.9 0.00 0.03 0.03 75 1000.4
20260505035044 13 281 3.2 12.9 0.00 0.03 0.03 75 1000.4
20260505034935 13 259 4.8 12.9 0.00 0.03 0.03 75 1000.5
20260505034847 13 233 4.8 12.9 0.00 0.03 0.03 75 1000.4
20260505034737 13 243 4.8 12.9 0.00 0.03 0.03 74 1000.4
20260505034628 13 159 4.8 12.9 0.00 0.03 0.03 74 1000.4
20260505034538 13 212 3.2 12.9 0.00 0.03 0.03 74 1000.6
20260505034430 13 253 4.8 12.9 0.00 0.03 0.03 74 1000.8
20260505034342 13 212 4.8 14.5 0.00 0.03 0.03 74 1000.8
20260505034253 13 237 1.6 14.5 0.00 0.03 0.03 73 1000.7
20260505034143 13 124 1.6 14.5 0.00 0.03 0.03 73 1000.9
20260505034030 13 117 1.6 14.5 0.00 0.03 0.03 73 1000.8
20260505033942 13 297 3.2 14.5 0.00 0.03 0.03 73 1000.8
20260505033834 13 351 3.2 14.5 0.00 0.03 0.03 73 1000.9
20260505033725 14 329 3.2 14.5 0.00 0.03 0.03 73 1001.0
20260505033640 14 345 4.8 16.1 0.00 0.03 0.03 73 1000.9
20260505033546 14 309 8.0 16.1 0.00 0.03 0.03 72 1000.7
20260505033436 14 256 6.4 16.1 0.00 0.03 0.03 72 1000.6
20260505033347 15 155 4.8 16.1 0.00 0.03 0.03 72 1000.6
20260505033259 15 312 3.2 16.1 0.00 0.03 0.03 72 1000.8
20260505033129 15 294 3.2 16.1 0.00 0.03 0.03 72 1000.9
20260505033035 15 326 4.8 16.1 0.00 0.03 0.03 72 1000.9
20260505032946 15 307 6.4 16.1 0.00 0.03 0.03 71 1000.8
20260505032836 15 226 6.4 16.1 0.00 0.03 0.03 70 1000.7
20260505032727 15 274 4.8 12.9 0.00 0.03 0.03 68 1000.7
20260505032638 16 309 4.8 12.9 0.00 0.03 0.03 67 1000.6
20260505032555 16 299 6.4 12.9 0.00 0.03 0.03 66 1000.6
20260505032500 16 296 6.4 12.9 0.00 0.03 0.03 66 1000.5
20260505032347 17 326 3.2 9.7 0.00 0.03 0.03 68 1000.5
20260505032240 17 286 3.2 8.0 0.00 0.03 0.03 68 1000.4
20260505032131 17 264 3.2 12.9 0.00 0.03 0.03 68 1000.4
20260505032036 17 35 3.2 12.9 0.00 0.03 0.03 67 1000.3
20260505031927 17 135 3.2 12.9 0.00 0.03 0.03 68 1000.1
20260505031838 17 293 3.2 12.9 0.00 0.03 0.03 67 999.9
20260505031730 17 316 3.2 12.9 0.00 0.03 0.03 67 999.6
20260505031626 17 340 3.2 12.9 0.00 0.03 0.03 67 999.5
20260505031532 17 298 4.8 12.9 0.00 0.03 0.03 67 999.3
20260505031443 17 336 4.8 14.5 0.00 0.03 0.03 67 999.3
20260505031355 17 226 3.2 17.7 0.00 0.03 0.03 67 999.3
20260505031225 17 276 1.6 17.7 0.00 0.03 0.03 67 999.3
20260505031136 17 342 3.2 17.7 0.00 0.03 0.03 67 999.3
20260505031042 17 257 3.2 17.7 0.00 0.03 0.03 67 999.3
20260505030933 17 205 4.8 17.7 0.00 0.03 0.03 67 999.2
20260505030824 17 270 3.2 17.7 0.00 0.03 0.03 67 999.1
20260505030736 17 208 4.8 17.7 0.00 0.03 0.03 67 999.0
20260505030633 17 252 8.0 17.7 0.00 0.03 0.03 68 999.1
20260505030538 17 233 6.4 17.7 0.00 0.03 0.03 68 999.1
20260505030450 17 221 3.2 14.5 0.00 0.03 0.03 68 999.1
20260505030401 17 264 4.8 19.3 0.00 0.03 0.03 68 999.0
20260505030232 17 207 4.8 19.3 0.00 0.03 0.03 68 999.0
20260505030142 17 167 8.0 19.3 0.00 0.03 0.03 68 998.9
20260505030056 17 241 8.0 19.3 0.00 0.03 0.03 69 998.9
20260505025941 17 220 3.2 20.9 0.00 0.03 0.03 69 998.7
20260505025851 17 150 4.8 20.9 0.00 0.03 0.03 69 998.7
20260505025802 17 156 8.0 20.9 0.00 0.03 0.03 68 998.6
20260505025636 17 233 8.0 20.9 0.00 0.03 0.03 68 998.6
20260505025543 17 241 6.4 20.9 0.00 0.03 0.03 68 998.6
20260505025433 17 199 6.4 20.9 0.00 0.03 0.03 68 998.6
20260505025344 17 246 8.0 22.5 0.00 0.03 0.03 68 998.6
20260505025256 17 134 9.7 22.5 0.00 0.03 0.03 68 998.6
20260505025206 17 181 9.7 22.5 0.00 0.03 0.03 68 998.6
20260505025051 17 233 6.4 22.5 0.00 0.03 0.03 68 998.5
20260505024941 17 150 8.0 22.5 0.00 0.03 0.03 67 998.6
20260505024833 17 237 9.7 22.5 0.00 0.03 0.03 67 998.5
20260505024724 17 331 11.3 22.5 0.00 0.03 0.03 67 998.5
20260505024640 17 143 11.3 22.5 0.00 0.03 0.03 66 998.6
20260505024526 17 234 6.4 19.3 0.00 0.03 0.03 67 998.5
20260505024438 17 214 8.0 19.3 0.00 0.03 0.03 66 998.5
20260505024329 17 195 8.0 19.3 0.00 0.03 0.03 66 998.5
20260505024240 17 266 6.4 19.3 0.00 0.03 0.03 66 998.4
20260505024153 17 264 8.0 19.3 0.00 0.03 0.03 66 998.4
20260505024058 17 198 9.7 19.3 0.00 0.03 0.03 66 998.5
20260505023950 17 137 6.4 19.3 0.00 0.03 0.03 66 998.5
20260505023859 17 176 6.4 17.7 0.00 0.03 0.03 66 998.5
20260505023749 17 186 6.4 17.7 0.00 0.03 0.03 66 998.5
20260505023638 17 250 8.0 17.7 0.00 0.03 0.03 66 998.5
20260505023529 17 252 8.0 20.9 0.00 0.03 0.03 66 998.3
20260505023439 17 235 8.0 20.9 0.00 0.03 0.03 66 998.4
20260505023330 17 251 8.0 20.9 0.00 0.03 0.03 66 998.3
20260505023241 17 131 6.4 20.9 0.00 0.03 0.03 65 998.4
20260505023153 17 190 6.4 20.9 0.00 0.03 0.03 66 998.4
20260505023104 17 126 8.0 20.9 0.00 0.03 0.03 66 998.5
20260505022957 17 200 8.0 20.9 0.00 0.03 0.03 65 998.5
20260505022908 17 207 9.7 20.9 0.00 0.03 0.03 65 998.4
20260505022819 17 179 11.3 20.9 0.00 0.03 0.03 65 998.5
20260505022730 17 246 11.3 22.5 0.03 0.03 0.03 66 998.4
20260505022530 17 233 9.7 22.5 0.03 0.03 0.03 66 998.4
20260505022440 17 207 8.0 22.5 0.03 0.03 0.03 67 998.3
20260505022333 17 248 9.7 22.5 0.03 0.03 0.03 66 998.3
20260505022243 17 185 11.3 22.5 0.03 0.03 0.03 66 998.3
20260505022134 17 197 9.7 22.5 0.03 0.03 0.03 66 998.2
20260505022042 17 237 9.7 22.5 0.03 0.03 0.03 66 998.4
20260505021932 17 195 9.7 22.5 0.03 0.03 0.03 66 998.3
20260505021843 17 243 9.7 22.5 0.03 0.03 0.03 66 998.3
20260505021754 17 228 12.9 22.5 0.03 0.03 0.03 67 998.4
20260505021628 17 147 11.3 22.5 0.03 0.03 0.03 66 998.4
20260505021533 17 222 9.7 22.5 0.03 0.03 0.03 67 998.4
20260505021424 17 223 6.4 22.5 0.03 0.03 0.03 67 998.3
20260505021336 17 258 6.4 22.5 0.03 0.03 0.03 67 998.3
20260505021246 17 230 9.7 27.4 0.03 0.03 0.03 66 998.4
20260505021157 17 220 11.3 27.4 0.03 0.03 0.03 66 998.4
20260505021109 17 210 12.9 32.2 0.03 0.03 0.03 66 998.5
20260505020958 17 241 12.9 35.4 0.03 0.03 0.03 66 998.5
20260505020850 17 184 11.3 35.4 0.03 0.03 0.03 66 998.5
20260505020759 17 283 12.9 35.4 0.03 0.03 0.03 66 998.5
20260505020628 17 206 16.1 35.4 0.03 0.03 0.03 66 998.5
20260505020538 17 155 16.1 35.4 0.03 0.03 0.03 66 998.5
20260505020428 17 160 12.9 35.4 0.03 0.03 0.03 66 998.6
20260505020338 17 285 14.5 35.4 0.03 0.03 0.03 66 998.6
20260505020228 17 224 16.1 35.4 0.03 0.03 0.03 66 998.6
20260505020140 17 231 16.1 35.4 0.03 0.03 0.03 65 998.6
20260505020046 17 54 12.9 27.4 0.03 0.03 0.03 66 998.6
20260505015957 17 220 12.9 27.4 0.03 0.03 0.03 66 998.6
20260505015827 17 299 11.3 27.4 0.03 0.03 0.03 65 998.5
20260505015738 17 182 9.7 27.4 0.03 0.03 0.03 65 998.5
20260505015633 17 264 11.3 27.4 0.03 0.03 0.03 66 998.5
20260505015538 17 207 12.9 27.4 0.03 0.03 0.03 65 998.5
20260505015429 17 203 14.5 27.4 0.03 0.03 0.03 65 998.3
20260505015341 17 181 14.5 27.4 0.03 0.03 0.03 65 998.4
20260505015231 17 254 12.9 27.4 0.03 0.03 0.03 65 998.4
20260505015142 17 219 12.9 27.4 0.03 0.03 0.03 65 998.3
20260505015028 17 274 14.5 27.4 0.03 0.03 0.03 65 998.3
20260505014939 17 181 12.9 25.7 0.03 0.03 0.03 65 998.4
20260505014849 17 275 11.3 24.1 0.03 0.03 0.03 66 998.4
20260505014802 17 203 12.9 24.1 0.03 0.03 0.03 66 998.4
20260505014657 17 213 11.3 25.7 0.03 0.03 0.03 66 998.3
20260505014608 17 171 11.3 25.7 0.03 0.03 0.03 67 998.3
20260505014514 17 172 9.7 25.7 0.03 0.03 0.03 67 998.4
20260505014403 17 198 9.7 25.7 0.03 0.03 0.03 67 998.2
20260505014315 17 221 9.7 25.7 0.03 0.03 0.03 68 998.2
20260505014227 17 243 9.7 25.7 0.03 0.03 0.03 68 998.1
20260505014118 17 194 8.0 25.7 0.03 0.03 0.03 68 998.1
20260505014004 17 252 9.7 25.7 0.03 0.03 0.03 68 997.8
20260505013834 17 239 11.3 25.7 0.03 0.03 0.03 67 997.9
20260505013725 17 206 11.3 24.1 0.03 0.03 0.03 68 997.9
20260505013637 17 146 11.3 24.1 0.03 0.03 0.03 68 998.1
20260505013527 17 228 8.0 24.1 0.03 0.03 0.03 68 998.1
20260505013240 17 229 11.3 32.2 0.03 0.03 0.03 67 998.4
20260505013131 18 221 9.7 32.2 0.03 0.03 0.03 66 998.4
20260505013037 18 223 9.7 32.2 0.03 0.03 0.03 66 998.5
20260505012947 18 215 11.3 32.2 0.03 0.03 0.03 64 998.4
20260505012900 18 212 11.3 32.2 0.03 0.03 0.03 63 998.4
20260505012811 18 229 12.9 32.2 0.00 0.00 0.00 62 998.3
20260505012700 18 224 12.9 32.2 0.00 0.00 0.00 61 998.3
20260505012524 18 203 12.9 32.2 0.00 0.00 0.00 60 998.4
20260505012439 18 236 16.1 32.2 0.00 0.00 0.00 61 998.4
20260505012329 18 287 12.9 29.0 0.00 0.00 0.00 61 998.3
20260505012240 18 213 11.3 32.2 0.00 0.00 0.00 61 998.3
20260505012132 18 213 11.3 32.2 0.00 0.00 0.00 61 998.3
20260505012039 18 210 16.1 32.2 0.00 0.00 0.00 62 998.2
20260505011931 18 172 14.5 32.2 0.00 0.00 0.00 62 998.1
20260505011841 18 214 11.3 32.2 0.00 0.00 0.00 62 998.0
20260505011732 18 179 11.3 32.2 0.00 0.00 0.00 62 997.9
20260505011626 18 214 14.5 32.2 0.00 0.00 0.00 62 997.9
20260505011532 18 262 14.5 32.2 0.00 0.00 0.00 62 997.9
20260505011444 19 131 14.5 32.2 0.00 0.00 0.00 62 997.9
20260505011355 19 302 12.9 27.4 0.00 0.00 0.00 61 997.8
20260505011246 19 247 11.3 27.4 0.00 0.00 0.00 61 997.9
20260505011157 19 185 9.7 29.0 0.00 0.00 0.00 61 998.0
20260505011043 19 205 9.7 38.6 0.00 0.00 0.00 61 998.0
20260505010933 19 184 11.3 38.6 0.00 0.00 0.00 61 997.9
20260505010846 20 193 11.3 38.6 0.00 0.00 0.00 61 997.9
20260505010757 20 268 9.7 38.6 0.00 0.00 0.00 60 997.7
20260505010647 20 198 11.3 38.6 0.00 0.00 0.00 60 997.7
20260505010532 20 188 16.1 38.6 0.00 0.00 0.00 60 997.9
20260505010427 20 235 14.5 38.6 0.00 0.00 0.00 60 997.8
20260505010339 20 158 14.5 38.6 0.00 0.00 0.00 59 997.7
20260505010250 20 291 19.3 38.6 0.00 0.00 0.00 59 997.6
20260505010200 20 220 16.1 35.4 0.00 0.00 0.00 58 997.7
20260505010045 20 195 12.9 35.4 0.00 0.00 0.00 58 997.7
20260505005935 20 216 12.9 35.4 0.00 0.00 0.00 58 997.7
20260505005846 20 226 8.0 25.7 0.00 0.00 0.00 58 997.7
20260505005737 20 205 11.3 25.7 0.00 0.00 0.00 58 997.5
20260505005649 20 225 12.9 25.7 0.00 0.00 0.00 58 997.7
20260505005533 21 227 9.7 25.7 0.00 0.00 0.00 58 997.5
20260505005424 21 221 11.3 25.7 0.00 0.00 0.00 58 997.5
20260505005340 21 236 14.5 25.7 0.00 0.00 0.00 57 997.5
20260505005250 21 232 12.9 25.7 0.00 0.00 0.00 57 997.7
20260505005140 21 205 11.3 25.7 0.00 0.00 0.00 57 997.6
20260505005027 21 263 12.9 27.4 0.00 0.00 0.00 57 997.5
20260505004938 21 274 11.3 27.4 0.00 0.00 0.00 57 997.6
20260505004829 21 205 11.3 27.4 0.00 0.00 0.00 57 997.6
20260505004741 21 165 11.3 27.4 0.00 0.00 0.00 57 997.6
20260505004651 21 259 11.3 27.4 0.00 0.00 0.00 57 997.6
20260505004541 21 195 12.9 29.0 0.00 0.00 0.00 57 997.6
20260505004432 21 235 9.7 29.0 0.00 0.00 0.00 57 997.7
20260505004327 21 191 8.0 29.0 0.00 0.00 0.00 57 997.7
20260505004239 21 160 11.3 33.8 0.00 0.00 0.00 57 997.7
20260505004150 21 287 12.9 33.8 0.00 0.00 0.00 57 997.5
20260505004101 21 250 8.0 33.8 0.00 0.00 0.00 57 997.7
20260505003932 21 281 9.7 33.8 0.00 0.00 0.00 57 997.6
20260505003824 21 243 12.9 37.0 0.00 0.00 0.00 56 997.6
20260505003735 21 215 12.9 37.0 0.00 0.00 0.00 56 997.7
20260505003627 21 210 9.7 37.0 0.00 0.00 0.00 56 997.7
20260505003534 21 204 11.3 37.0 0.00 0.00 0.00 56 997.5
20260505003430 21 259 11.3 37.0 0.00 0.00 0.00 55 997.7
20260505003341 21 167 9.7 37.0 0.00 0.00 0.00 55 997.9
20260505003233 21 243 9.7 37.0 0.00 0.00 0.00 54 997.8
20260505003126 21 304 12.9 37.0 0.00 0.00 0.00 54 997.7
20260505003033 21 249 12.9 37.0 0.00 0.00 0.00 54 997.8
20260505002945 21 155 8.0 30.6 0.00 0.00 0.00 54 997.7
20260505002856 21 171 11.3 30.6 0.00 0.00 0.00 54 997.7
20260505002748 21 125 11.3 30.6 0.00 0.00 0.00 53 997.7
20260505002700 21 185 9.7 30.6 0.00 0.00 0.00 53 997.6
20260505002527 21 160 9.7 30.6 0.00 0.00 0.00 53 997.5
20260505002439 21 252 11.3 30.6 0.00 0.00 0.00 53 997.5
20260505002350 21 282 11.3 30.6 0.00 0.00 0.00 53 997.5
20260505002300 21 90 9.7 30.6 0.00 0.00 0.00 52 997.5
20260505002153 21 191 11.3 30.6 0.00 0.00 0.00 52 997.5
20260505002105 21 139 12.9 30.6 0.00 0.00 0.00 52 997.5
20260505002011 21 240 14.5 22.5 0.00 0.00 0.00 51 997.5
20260505001901 22 217 12.9 29.0 0.00 0.00 0.00 51 997.4
20260505001753 22 224 9.7 29.0 0.00 0.00 0.00 50 997.4
20260505001704 22 215 9.7 29.0 0.00 0.00 0.00 50 997.4
20260505001530 22 259 6.4 29.0 0.00 0.00 0.00 49 997.5
20260505001424 22 232 4.8 29.0 0.00 0.00 0.00 48 997.4
20260505001335 22 248 6.4 29.0 0.00 0.00 0.00 48 997.4
20260505001227 22 133 9.7 29.0 0.00 0.00 0.00 47 997.4
20260505001136 22 172 11.3 29.0 0.00 0.00 0.00 47 997.3
20260505001043 22 216 11.3 29.0 0.00 0.00 0.00 47 997.5
20260505000935 22 320 9.7 33.8 0.00 0.00 0.00 46 997.4
20260505000846 22 219 11.3 33.8 0.00 0.00 0.00 46 997.4
20260505000758 22 168 8.0 33.8 0.00 0.00 0.00 45 997.4
20260505000627 22 213 8.0 33.8 0.00 0.00 0.00 44 997.3
20260505000533 22 201 9.7 33.8 0.00 0.00 0.00 44 997.3
20260505000428 22 250 11.3 33.8 0.00 0.00 0.00 42 997.4
20260505000340 22 220 11.3 33.8 0.00 0.00 0.00 42 997.4
20260505000230 23 264 16.1 33.8 0.00 0.00 0.00 41 997.5
20260505000141 23 234 16.1 33.8 0.00 0.00 0.00 41 997.5
20260505000048 23 217 12.9 30.6 0.00 0.00 0.00 39 997.5
20260504235939 23 193 12.9 30.6 0.00 0.00 0.00 39 997.5
20260504235830 23 121 12.9 30.6 0.00 0.00 0.00 37 997.4
20260504235741 23 167 11.3 30.6 0.00 0.00 0.00 37 997.4
20260504235632 23 311 8.0 22.5 0.00 0.00 0.00 36 997.4
20260504235543 23 229 8.0 22.5 0.00 0.00 0.00 36 997.3
20260504235435 23 226 8.0 22.5 0.00 0.00 0.00 36 997.3
20260504235326 23 214 6.4 20.9 0.00 0.00 0.00 36 997.3
20260504235236 23 172 4.8 19.3 0.00 0.00 0.00 36 997.4
20260504235148 23 158 8.0 19.3 0.00 0.00 0.00 35 997.5
20260504235059 23 157 9.7 19.3 0.00 0.00 0.00 35 997.4
20260504234928 23 215 8.0 16.1 0.00 0.00 0.00 35 997.4
20260504234840 23 173 8.0 16.1 0.00 0.00 0.00 35 997.5
20260504234730 23 212 6.4 16.1 0.00 0.00 0.00 35 997.4
20260504234625 23 212 6.4 16.1 0.00 0.00 0.00 35 997.4
20260504234531 23 166 6.4 16.1 0.00 0.00 0.00 35 997.3
20260504234443 23 146 6.4 16.1 0.00 0.00 0.00 35 997.3
20260504234335 23 213 6.4 16.1 0.00 0.00 0.00 35 997.4
20260504234225 23 239 4.8 16.1 0.00 0.00 0.00 35 997.3
20260504234137 23 202 1.6 16.1 0.00 0.00 0.00 35 997.3
20260504234022 23 207 3.2 16.1 0.00 0.00 0.00 35 997.3
20260504233913 23 233 4.8 16.1 0.00 0.00 0.00 35 997.3
20260504233802 23 202 6.4 16.1 0.00 0.00 0.00 35 997.3
20260504233636 23 200 8.0 16.1 0.00 0.00 0.00 34 997.3
20260504233541 23 243 6.4 16.1 0.00 0.00 0.00 35 997.4
20260504233454 23 217 8.0 16.1 0.00 0.00 0.00 35 997.4
20260504233404 23 231 9.7 16.1 0.00 0.00 0.00 35 997.4
20260504233234 23 218 8.0 16.1 0.00 0.00 0.00 35 997.4
20260504233126 23 179 4.8 14.5 0.00 0.00 0.00 35 997.4
20260504233032 23 247 3.2 14.5 0.00 0.00 0.00 35 997.4
20260504232943 23 207 3.2 14.5 0.00 0.00 0.00 35 997.4
20260504232835 23 246 4.8 14.5 0.00 0.00 0.00 35 997.4
20260504232731 23 211 6.4 16.1 0.00 0.00 0.00 34 997.5
20260504232641 23 244 6.4 16.1 0.00 0.00 0.00 35 997.5
20260504232546 23 203 6.4 16.1 0.00 0.00 0.00 34 997.4
20260504232458 23 201 8.0 17.7 0.00 0.00 0.00 35 997.5
20260504232328 23 224 9.7 17.7 0.00 0.00 0.00 34 997.6
20260504232239 23 186 8.0 17.7 0.00 0.00 0.00 35 997.5
20260504232126 23 229 8.0 17.7 0.00 0.00 0.00 35 997.6
20260504232032 23 230 8.0 17.7 0.00 0.00 0.00 35 997.5
20260504231924 23 238 8.0 17.7 0.00 0.00 0.00 35 997.6
20260504231834 23 181 9.7 17.7 0.00 0.00 0.00 35 997.6
20260504231730 23 225 9.7 20.9 0.00 0.00 0.00 34 997.6
20260504231641 23 199 8.0 20.9 0.00 0.00 0.00 34 997.7
20260504231546 24 102 6.4 20.9 0.00 0.00 0.00 35 997.6
20260504231458 23 214 8.0 20.9 0.00 0.00 0.00 35 997.6
20260504231408 23 249 6.4 20.9 0.00 0.00 0.00 35 997.7
20260504231320 24 219 6.4 20.9 0.00 0.00 0.00 35 997.6
20260504231211 24 248 6.4 20.9 0.00 0.00 0.00 35 997.6
20260504231100 23 224 11.3 20.9 0.00 0.00 0.00 34 997.8
20260504230930 24 226 11.3 20.9 0.00 0.00 0.00 35 997.8
20260504230840 24 235 8.0 16.1 0.00 0.00 0.00 35 997.8
20260504230751 24 206 6.4 16.1 0.00 0.00 0.00 35 997.8
20260504230625 24 238 3.2 16.1 0.00 0.00 0.00 35 997.8
20260504230530 24 201 4.8 16.1 0.00 0.00 0.00 35 997.9
20260504230441 24 248 4.8 16.1 0.00 0.00 0.00 36 998.0
20260504230351 24 228 4.8 12.9 0.00 0.00 0.00 35 997.9
20260504230241 24 163 4.8 12.9 0.00 0.00 0.00 36 997.9
20260504230155 23 224 4.8 12.9 0.00 0.00 0.00 35 997.9
20260504230105 23 221 4.8 12.9 0.00 0.00 0.00 35 997.9
20260504230012 24 236 4.8 14.5 0.00 0.00 0.00 36 998.0
20260504225902 24 240 6.4 14.5 0.00 0.00 0.00 35 998.0
20260504225733 24 284 6.4 14.5 0.00 0.00 0.00 36 998.0
20260504225627 24 243 4.8 14.5 0.00 0.00 0.00 36 998.1
20260504225534 24 232 3.2 16.1 0.00 0.00 0.00 36 998.0
20260504225445 23 266 4.8 16.1 0.00 0.00 0.00 37 998.0
20260504225359 23 242 6.4 16.1 0.00 0.00 0.00 36 998.0
20260504225310 23 193 6.4 16.1 0.00 0.00 0.00 36 998.2
20260504225200 23 226 8.0 16.1 0.00 0.00 0.00 37 998.1
20260504225026 23 198 6.4 16.1 0.00 0.00 0.00 36 998.2
20260504224937 23 213 4.8 19.3 0.00 0.00 0.00 36 998.1
20260504224827 23 169 9.7 19.3 0.00 0.00 0.00 36 998.3
20260504224739 23 242 8.0 19.3 0.00 0.00 0.00 36 998.2
20260504224649 23 184 4.8 19.3 0.00 0.00 0.00 37 998.2
20260504224600 23 205 4.8 19.3 0.00 0.00 0.00 36 998.2
20260504224453 23 211 4.8 19.3 0.00 0.00 0.00 36 998.3
20260504224343 23 262 6.4 19.3 0.00 0.00 0.00 36 998.3
20260504224257 23 232 6.4 19.3 0.00 0.00 0.00 36 998.3
20260504224207 23 174 4.8 19.3 0.00 0.00 0.00 36 998.3
20260504224119 23 265 4.8 19.3 0.00 0.00 0.00 36 998.4
20260504224024 23 262 4.8 14.5 0.00 0.00 0.00 36 998.3
20260504223914 23 225 3.2 14.5 0.00 0.00 0.00 36 998.4
20260504223825 23 212 6.4 22.5 0.00 0.00 0.00 36 998.3
20260504223627 23 189 6.4 22.5 0.00 0.00 0.00 36 998.4
20260504223533 23 184 6.4 22.5 0.00 0.00 0.00 35 998.4
20260504223341 23 216 6.4 22.5 0.00 0.00 0.00 35 998.5
20260504223231 23 210 6.4 22.5 0.00 0.00 0.00 36 998.5
20260504223141 23 222 9.7 22.5 0.00 0.00 0.00 35 998.5
20260504223055 23 219 11.3 22.5 0.00 0.00 0.00 35 998.5
20260504223001 24 32 8.0 20.9 0.00 0.00 0.00 36 998.6
20260504222831 24 219 6.4 20.9 0.00 0.00 0.00 36 998.6
20260504222742 23 232 8.0 20.9 0.00 0.00 0.00 36 998.6
20260504222634 23 167 8.0 20.9 0.00 0.00 0.00 35 998.6
20260504222540 23 202 9.7 20.9 0.00 0.00 0.00 35 998.7
20260504222431 24 245 9.7 20.9 0.00 0.00 0.00 35 998.7
20260504222326 24 224 8.0 20.9 0.00 0.00 0.00 35 998.7
20260504222237 24 273 8.0 20.9 0.00 0.00 0.00 35 998.7
20260504222129 24 200 6.4 20.9 0.00 0.00 0.00 36 998.6
20260504222035 24 192 9.7 20.9 0.00 0.00 0.00 35 998.7
20260504221925 24 226 9.7 20.9 0.00 0.00 0.00 36 998.8
20260504221836 24 180 6.4 29.0 0.00 0.00 0.00 36 998.8
20260504221725 24 117 3.2 32.2 0.00 0.00 0.00 37 998.8
20260504221637 24 189 4.8 32.2 0.00 0.00 0.00 36 998.8
20260504221543 24 160 8.0 32.2 0.00 0.00 0.00 35 998.8
20260504221439 24 209 8.0 32.2 0.00 0.00 0.00 36 998.7
20260504221331 24 215 8.0 32.2 0.00 0.00 0.00 36 998.6
20260504221240 24 248 8.0 32.2 0.00 0.00 0.00 36 998.8
20260504221153 23 169 12.9 32.2 0.00 0.00 0.00 36 998.8
20260504221102 24 225 12.9 32.2 0.00 0.00 0.00 34 998.9
20260504220951 24 224 11.3 29.0 0.00 0.00 0.00 35 998.9
20260504220901 24 207 9.7 20.9 0.00 0.00 0.00 36 998.8
20260504220754 24 198 8.0 19.3 0.00 0.00 0.00 36 998.8
20260504220705 24 208 4.8 19.3 0.00 0.00 0.00 37 998.9
20260504220528 24 13 8.0 19.3 0.00 0.00 0.00 37 998.9
20260504220440 24 229 8.0 19.3 0.00 0.00 0.00 37 998.8
20260504220357 24 209 6.4 19.3 0.00 0.00 0.00 37 998.8
20260504220308 24 248 6.4 19.3 0.00 0.00 0.00 36 998.9
20260504220157 24 176 11.3 19.3 0.00 0.00 0.00 37 998.9
20260504220042 24 228 9.7 19.3 0.00 0.00 0.00 36 998.9
20260504215936 24 159 8.0 16.1 0.00 0.00 0.00 37 998.9
20260504215826 24 239 8.0 16.1 0.00 0.00 0.00 37 998.9
20260504215737 24 224 6.4 14.5 0.00 0.00 0.00 37 998.9
20260504215628 24 256 6.4 14.5 0.00 0.00 0.00 36 999.0
20260504215533 24 219 4.8 14.5 0.00 0.00 0.00 37 999.0
20260504215428 24 200 6.4 19.3 0.00 0.00 0.00 37 999.0
20260504215339 24 214 6.4 19.3 0.00 0.00 0.00 37 999.0
20260504215230 24 236 4.8 19.3 0.00 0.00 0.00 38 999.0
20260504215142 24 210 8.0 19.3 0.00 0.00 0.00 38 999.0
20260504215028 24 198 8.0 19.3 0.00 0.00 0.00 37 998.9
20260504214940 24 121 4.8 19.3 0.00 0.00 0.00 37 999.1
20260504214832 24 262 4.8 30.6 0.00 0.00 0.00 37 999.0
20260504214743 24 238 6.4 30.6 0.00 0.00 0.00 37 999.1
20260504214635 24 188 6.4 30.6 0.00 0.00 0.00 37 999.0
20260504214526 23 184 4.8 30.6 0.00 0.00 0.00 37 999.0
20260504214436 23 205 4.8 30.6 0.00 0.00 0.00 37 999.1
20260504214328 23 188 4.8 30.6 0.00 0.00 0.00 38 999.1
20260504214239 23 250 8.0 30.6 0.00 0.00 0.00 37 999.0
20260504214151 23 226 9.7 30.6 0.00 0.00 0.00 37 999.0
20260504214036 23 228 8.0 30.6 0.00 0.00 0.00 37 999.0
20260504213928 23 208 11.3 25.7 0.00 0.00 0.00 37 999.0
20260504213838 23 202 12.9 25.7 0.00 0.00 0.00 37 999.0
20260504213749 23 160 11.3 25.7 0.00 0.00 0.00 37 999.1
20260504213659 23 335 9.7 19.3 0.00 0.00 0.00 37 999.1
20260504213528 23 232 11.3 24.1 0.00 0.00 0.00 37 999.0
20260504213440 23 162 11.3 24.1 0.00 0.00 0.00 38 999.0
20260504213351 23 185 11.3 24.1 0.00 0.00 0.00 38 999.1
20260504213241 23 206 9.7 24.1 0.00 0.00 0.00 38 999.1
20260504213131 23 193 8.0 24.1 0.00 0.00 0.00 38 999.2
20260504213037 23 250 8.0 24.1 0.00 0.00 0.00 38 999.1
20260504212929 23 167 11.3 24.1 0.00 0.00 0.00 38 999.2
20260504212840 23 203 12.9 24.1 0.00 0.00 0.00 38 999.2
20260504212731 23 225 11.3 22.5 0.00 0.00 0.00 38 999.1
20260504212625 24 263 11.3 22.5 0.00 0.00 0.00 37 999.2
20260504212531 24 199 11.3 22.5 0.00 0.00 0.00 38 999.2
20260504212442 24 172 8.0 22.5 0.00 0.00 0.00 38 999.3
20260504212354 24 245 8.0 22.5 0.00 0.00 0.00 38 999.2
20260504212244 24 262 8.0 22.5 0.00 0.00 0.00 38 999.3
20260504212135 24 239 11.3 22.5 0.00 0.00 0.00 38 999.3
20260504212041 24 190 11.3 22.5 0.00 0.00 0.00 38 999.3
20260504211932 24 204 9.7 19.3 0.00 0.00 0.00 38 999.2
20260504211844 24 220 9.7 19.3 0.00 0.00 0.00 38 999.3
20260504211755 24 202 6.4 17.7 0.00 0.00 0.00 38 999.2
20260504211628 24 214 8.0 17.7 0.00 0.00 0.00 38 999.2
20260504211535 24 187 8.0 17.7 0.00 0.00 0.00 39 999.3
20260504211426 24 129 8.0 17.7 0.00 0.00 0.00 38 999.4
20260504211337 24 181 6.4 20.9 0.00 0.00 0.00 39 999.3
20260504211229 24 171 6.4 20.9 0.00 0.00 0.00 39 999.3
20260504211140 24 248 8.0 20.9 0.00 0.00 0.00 39 999.3
20260504211046 24 201 6.4 20.9 0.00 0.00 0.00 39 999.4
20260504210936 24 255 6.4 20.9 0.00 0.00 0.00 39 999.3
20260504210826 24 117 8.0 20.9 0.00 0.00 0.00 39 999.4
20260504210743 24 265 9.7 20.9 0.00 0.00 0.00 39 999.4
20260504210634 24 191 11.3 27.4 0.00 0.00 0.00 38 999.3
20260504210539 24 213 11.3 27.4 0.00 0.00 0.00 39 999.3
20260504210450 24 260 9.7 27.4 0.00 0.00 0.00 39 999.4
20260504210341 24 295 8.0 27.4 0.00 0.00 0.00 38 999.5
20260504210231 24 234 6.4 27.4 0.00 0.00 0.00 39 999.4
20260504210143 24 263 8.0 27.4 0.00 0.00 0.00 39 999.4
20260504210028 24 209 9.7 27.4 0.00 0.00 0.00 38 999.4
20260504205940 24 200 14.5 27.4 0.00 0.00 0.00 38 999.5
20260504205831 24 212 12.9 27.4 0.00 0.00 0.00 38 999.5
20260504205726 24 235 11.3 22.5 0.00 0.00 0.00 39 999.4
20260504205637 24 256 9.7 27.4 0.00 0.00 0.00 39 999.4
20260504205542 24 193 9.7 27.4 0.00 0.00 0.00 39 999.5
20260504205433 24 162 11.3 27.4 0.00 0.00 0.00 39 999.4
20260504205343 24 258 11.3 27.4 0.00 0.00 0.00 40 999.4
20260504205234 24 240 9.7 27.4 0.00 0.00 0.00 39 999.5
20260504205125 24 210 11.3 27.4 0.00 0.00 0.00 39 999.6
20260504205031 24 205 11.3 27.4 0.00 0.00 0.00 39 999.6
20260504204942 24 184 12.9 27.4 0.00 0.00 0.00 39 999.6
20260504204857 24 205 11.3 27.4 0.00 0.00 0.00 39 999.7
20260504204727 24 236 8.0 22.5 0.00 0.00 0.00 39 999.8
20260504204639 24 183 9.7 22.5 0.00 0.00 0.00 39 999.7
20260504204525 24 231 9.7 22.5 0.00 0.00 0.00 40 999.8
20260504204436 24 222 8.0 24.1 0.00 0.00 0.00 40 999.7
20260504204327 24 226 11.3 24.1 0.00 0.00 0.00 39 999.8
20260504204239 24 269 12.9 24.1 0.00 0.00 0.00 39 999.9
20260504204130 24 231 9.7 24.1 0.00 0.00 0.00 39 999.9
20260504204036 24 174 9.7 24.1 0.00 0.00 0.00 39 999.8
20260504203932 24 217 9.7 24.1 0.00 0.00 0.00 40 999.9
20260504203841 24 180 11.3 24.1 0.00 0.00 0.00 39 999.8
20260504203754 24 267 11.3 24.1 0.00 0.00 0.00 39 999.8
20260504203704 25 171 11.3 24.1 0.00 0.00 0.00 39 1000.0
20260504203528 25 227 6.4 20.9 0.00 0.00 0.00 39 1000.1
20260504203439 25 160 6.4 22.5 0.00 0.00 0.00 40 1000.1
20260504203350 24 192 4.8 22.5 0.00 0.00 0.00 40 1000.1
20260504203300 24 253 6.4 22.5 0.00 0.00 0.00 41 1000.0
20260504203148 24 286 8.0 22.5 0.00 0.00 0.00 41 1000.1
20260504203100 24 246 9.7 22.5 0.00 0.00 0.00 41 1000.1
20260504203006 24 220 12.9 27.4 0.00 0.00 0.00 40 1000.1
20260504202900 24 252 11.3 27.4 0.00 0.00 0.00 40 1000.2
20260504202753 24 160 11.3 27.4 0.00 0.00 0.00 41 1000.2
20260504202703 24 245 9.7 27.4 0.00 0.00 0.00 41 1000.0
20260504202548 24 167 11.3 27.4 0.00 0.00 0.00 41 1000.1
20260504202439 24 215 12.9 27.4 0.00 0.00 0.00 41 1000.1
20260504202347 24 179 14.5 27.4 0.00 0.00 0.00 42 1000.2
20260504202300 24 169 12.9 27.4 0.00 0.00 0.00 42 1000.2
20260504202211 24 269 8.0 27.4 0.00 0.00 0.00 42 1000.0
20260504202057 24 233 9.7 27.4 0.00 0.00 0.00 42 1000.1
20260504201928 24 229 9.7 29.0 0.00 0.00 0.00 43 1000.1
20260504201839 23 208 11.3 30.6 0.00 0.00 0.00 43 1000.1
20260504201735 23 221 12.9 30.6 0.00 0.00 0.00 43 1000.1
20260504201625 23 216 11.3 30.6 0.00 0.00 0.00 44 1000.1
20260504201531 23 152 12.9 30.6 0.00 0.00 0.00 43 1000.1
20260504201441 23 333 11.3 30.6 0.00 0.00 0.00 44 1000.2
20260504201351 23 94 9.7 30.6 0.00 0.00 0.00 44 1000.2
20260504201303 23 198 12.9 30.6 0.00 0.00 0.00 44 1000.2
20260504201131 23 207 17.7 30.6 0.00 0.00 0.00 44 1000.2
20260504201036 23 224 16.1 30.6 0.00 0.00 0.00 44 1000.2
20260504200926 23 228 12.9 29.0 0.00 0.00 0.00 45 1000.2
20260504200838 23 218 11.3 29.0 0.00 0.00 0.00 45 1000.3
20260504200748 23 217 12.9 30.6 0.00 0.00 0.00 45 1000.2
20260504200658 23 184 14.5 30.6 0.00 0.00 0.00 45 1000.3
20260504200527 23 293 14.5 30.6 0.00 0.00 0.00 45 1000.3
20260504200438 23 238 14.5 30.6 0.00 0.00 0.00 45 1000.4
20260504200349 23 233 14.5 30.6 0.00 0.00 0.00 45 1000.4
20260504200239 23 196 14.5 30.6 0.00 0.00 0.00 45 1000.4
20260504200150 23 288 14.5 30.6 0.00 0.00 0.00 45 1000.5
20260504200035 23 77 14.5 30.6 0.00 0.00 0.00 45 1000.4
20260504195927 23 224 14.5 30.6 0.00 0.00 0.00 45 1000.5
20260504195839 23 226 9.7 30.6 0.00 0.00 0.00 45 1000.7
20260504195749 23 215 8.0 30.6 0.00 0.00 0.00 46 1000.4
20260504195639 23 203 11.3 30.6 0.00 0.00 0.00 45 1000.5
20260504195526 23 224 12.9 32.2 0.00 0.00 0.00 45 1000.5
20260504195441 23 218 11.3 32.2 0.00 0.00 0.00 45 1000.6
20260504195353 23 141 11.3 32.2 0.00 0.00 0.00 46 1000.6
20260504195305 23 19 14.5 32.2 0.00 0.00 0.00 46 1000.5
20260504195134 23 232 12.9 32.2 0.00 0.00 0.00 46 1000.7
20260504195042 23 218 12.9 32.2 0.00 0.00 0.00 46 1000.6
20260504194933 23 222 16.1 32.2 0.00 0.00 0.00 45 1000.6
20260504194844 23 168 12.9 32.2 0.00 0.00 0.00 46 1000.7
20260504194756 23 188 12.9 32.2 0.00 0.00 0.00 46 1000.7
20260504194707 23 250 12.9 27.4 0.00 0.00 0.00 46 1000.6
20260504194618 23 196 14.5 27.4 0.00 0.00 0.00 46 1000.6
20260504194502 23 263 11.3 25.7 0.00 0.00 0.00 46 1000.7
20260504194416 23 193 14.5 25.7 0.00 0.00 0.00 46 1000.7
20260504194306 23 200 16.1 25.7 0.00 0.00 0.00 45 1000.7
20260504194218 23 182 14.5 33.8 0.00 0.00 0.00 45 1000.8
20260504194107 23 77 12.9 33.8 0.00 0.00 0.00 45 1000.6
20260504193952 23 208 11.3 33.8 0.00 0.00 0.00 45 1000.6
20260504193842 23 165 9.7 33.8 0.00 0.00 0.00 46 1000.8
20260504193731 23 294 11.3 33.8 0.00 0.00 0.00 46 1000.7
20260504193642 23 247 11.3 33.8 0.00 0.00 0.00 46 1000.7
20260504193548 22 250 9.7 33.8 0.00 0.00 0.00 46 1000.8
20260504193436 22 235 12.9 33.8 0.00 0.00 0.00 46 1000.9
20260504193348 22 230 12.9 33.8 0.00 0.00 0.00 46 1000.8
20260504193237 22 201 9.7 30.6 0.00 0.00 0.00 46 1000.8
20260504193131 22 257 14.5 30.6 0.00 0.00 0.00 46 1000.9
20260504193040 23 221 16.1 30.6 0.00 0.00 0.00 45 1001.0
20260504192930 23 218 14.5 25.7 0.00 0.00 0.00 45 1000.8
20260504192841 23 235 14.5 25.7 0.00 0.00 0.00 45 1000.8
20260504192732 23 236 12.9 25.7 0.00 0.00 0.00 44 1000.7
20260504192624 23 226 12.9 25.7 0.00 0.00 0.00 44 1000.7
20260504192531 23 221 9.7 25.7 0.00 0.00 0.00 44 1000.7
20260504192441 23 158 6.4 25.7 0.00 0.00 0.00 44 1000.8
20260504192336 23 185 9.7 25.7 0.00 0.00 0.00 45 1000.9
20260504192227 23 219 11.3 25.7 0.00 0.00 0.00 44 1000.8
20260504192137 23 221 11.3 25.7 0.00 0.00 0.00 44 1000.9
20260504192044 23 174 14.5 25.7 0.00 0.00 0.00 44 1000.8
20260504191934 23 162 14.5 25.7 0.00 0.00 0.00 43 1000.9
20260504191825 23 193 12.9 24.1 0.00 0.00 0.00 44 1000.9
20260504191736 23 223 12.9 22.5 0.00 0.00 0.00 43 1000.9
20260504191647 23 82 12.9 22.5 0.00 0.00 0.00 43 1000.9
20260504191531 23 209 8.0 24.1 0.00 0.00 0.00 44 1000.9
20260504191441 23 226 9.7 24.1 0.00 0.00 0.00 44 1001.0
20260504191336 23 210 9.7 24.1 0.00 0.00 0.00 43 1001.0
20260504191226 23 311 6.4 24.1 0.00 0.00 0.00 44 1001.0
20260504191137 23 261 9.7 24.1 0.00 0.00 0.00 44 1001.0
20260504191042 23 146 9.7 24.1 0.00 0.00 0.00 44 1001.0
20260504190956 23 226 11.3 24.1 0.00 0.00 0.00 44 1001.0
20260504190904 23 282 12.9 24.1 0.00 0.00 0.00 43 1001.0
20260504190734 23 265 14.5 24.1 0.00 0.00 0.00 43 1000.9
20260504190625 23 238 11.3 25.7 0.00 0.00 0.00 43 1001.0
20260504190532 23 188 9.7 25.7 0.00 0.00 0.00 43 1000.9
20260504190427 23 152 11.3 25.7 0.00 0.00 0.00 43 1000.9
20260504190338 23 252 9.7 25.7 0.00 0.00 0.00 43 1001.0
20260504190228 23 174 9.7 25.7 0.00 0.00 0.00 43 1000.9
20260504190140 23 182 9.7 25.7 0.00 0.00 0.00 43 1000.9
20260504190025 23 228 8.0 25.7 0.00 0.00 0.00 43 1001.0
20260504185936 23 169 9.7 25.7 0.00 0.00 0.00 43 1000.9
20260504185828 23 283 9.7 29.0 0.00 0.00 0.00 42 1001.0
20260504185739 23 257 9.7 29.0 0.00 0.00 0.00 43 1001.0
20260504185653 23 290 9.7 29.0 0.00 0.00 0.00 43 1001.0
20260504185537 23 210 9.7 29.0 0.00 0.00 0.00 43 1000.9
20260504185431 22 235 9.7 29.0 0.00 0.00 0.00 43 1001.0
20260504185342 22 338 12.9 29.0 0.00 0.00 0.00 43 1000.9
20260504185233 23 254 14.5 29.0 0.00 0.00 0.00 43 1001.0
20260504185125 23 203 12.9 29.0 0.00 0.00 0.00 43 1001.0
20260504185031 23 217 11.3 29.0 0.00 0.00 0.00 41 1001.0
20260504184942 23 212 11.3 24.1 0.00 0.00 0.00 43 1000.9
20260504184834 23 179 11.3 35.4 0.00 0.00 0.00 42 1000.9
20260504184746 23 261 9.7 35.4 0.00 0.00 0.00 42 1000.9
20260504184635 23 264 8.0 35.4 0.00 0.00 0.00 42 1001.0
20260504184539 23 200 8.0 35.4 0.00 0.00 0.00 42 1001.1
20260504184433 23 245 9.7 35.4 0.00 0.00 0.00 42 1001.0
20260504184324 23 210 9.7 35.4 0.00 0.00 0.00 42 1001.1
20260504184235 23 129 9.7 35.4 0.00 0.00 0.00 42 1001.0
20260504184145 23 243 14.5 35.4 0.00 0.00 0.00 42 1001.0
20260504184030 23 188 16.1 35.4 0.00 0.00 0.00 41 1001.1
20260504183940 23 181 11.3 33.8 0.00 0.00 0.00 41 1001.1
20260504183831 23 232 9.7 33.8 0.00 0.00 0.00 41 1001.0
20260504183741 23 241 11.3 33.8 0.00 0.00 0.00 40 1001.0
20260504183652 23 254 11.3 33.8 0.00 0.00 0.00 41 1001.0
20260504183536 23 151 6.4 29.0 0.00 0.00 0.00 41 1001.0
20260504183431 23 253 6.4 29.0 0.00 0.00 0.00 41 1001.0
20260504183341 23 201 6.4 29.0 0.00 0.00 0.00 40 1001.0
20260504183233 23 190 9.7 29.0 0.00 0.00 0.00 40 1001.1
20260504183124 23 237 11.3 29.0 0.00 0.00 0.00 39 1001.0
20260504183029 23 231 8.0 29.0 0.00 0.00 0.00 40 1001.0
20260504182939 23 246 6.4 29.0 0.00 0.00 0.00 40 1001.0
20260504182829 23 217 9.7 29.0 0.00 0.00 0.00 40 1001.0
20260504182741 23 225 12.9 29.0 0.00 0.00 0.00 40 1001.0
20260504182653 23 224 12.9 29.0 0.00 0.00 0.00 39 1001.0
20260504182542 23 167 8.0 24.1 0.00 0.00 0.00 39 1001.0
20260504182434 22 288 8.0 22.5 0.00 0.00 0.00 40 1001.0
20260504182346 22 226 14.5 27.4 0.00 0.00 0.00 39 1001.0
20260504182237 22 211 14.5 27.4 0.00 0.00 0.00 39 1001.0
20260504182129 22 238 14.5 27.4 0.00 0.00 0.00 39 1001.0
20260504182036 22 233 12.9 27.4 0.00 0.00 0.00 39 1001.0
20260504181928 22 181 9.7 27.4 0.00 0.00 0.00 39 1001.0
20260504181839 22 157 8.0 27.4 0.00 0.00 0.00 40 1000.9
20260504181730 22 141 9.7 27.4 0.00 0.00 0.00 39 1000.9
20260504181647 22 261 12.9 27.4 0.00 0.00 0.00 39 1001.0
20260504181530 22 285 12.9 29.0 0.00 0.00 0.00 38 1001.0
20260504181442 22 281 11.3 29.0 0.00 0.00 0.00 39 1001.1
20260504181352 22 192 12.9 29.0 0.00 0.00 0.00 38 1001.0
20260504181240 22 219 12.9 29.0 0.00 0.00 0.00 39 1001.0
20260504181154 22 145 12.9 29.0 0.00 0.00 0.00 38 1001.0
20260504181037 22 200 12.9 29.0 0.00 0.00 0.00 38 1001.1
20260504180927 22 177 11.3 29.0 0.00 0.00 0.00 38 1001.0
20260504180837 22 244 12.9 29.0 0.00 0.00 0.00 38 1001.0
20260504180727 22 117 9.7 29.0 0.00 0.00 0.00 38 1001.0
20260504180639 22 16 11.3 25.7 0.00 0.00 0.00 38 1001.0
20260504180530 22 294 9.7 25.7 0.00 0.00 0.00 38 1001.1
20260504180439 22 254 6.4 25.7 0.00 0.00 0.00 39 1001.1
20260504180352 22 129 8.0 25.7 0.00 0.00 0.00 39 1001.1
20260504180303 22 109 6.4 25.7 0.00 0.00 0.00 40 1001.1
20260504180134 22 309 6.4 27.4 0.00 0.00 0.00 40 1001.1
20260504180039 22 333 9.7 27.4 0.00 0.00 0.00 40 1001.2
20260504175954 22 222 14.5 38.6 0.00 0.00 0.00 40 1001.2
20260504175905 22 196 12.9 38.6 0.00 0.00 0.00 40 1001.2
20260504175734 22 189 8.0 38.6 0.00 0.00 0.00 40 1001.3
20260504175647 22 236 8.0 38.6 0.00 0.00 0.00 40 1001.2
20260504175601 22 248 9.7 38.6 0.00 0.00 0.00 40 1001.3
20260504175430 22 209 12.9 38.6 0.00 0.00 0.00 40 1001.3
20260504175342 22 141 14.5 38.6 0.00 0.00 0.00 39 1001.4
20260504175233 22 241 16.1 38.6 0.00 0.00 0.00 39 1001.4
20260504175143 22 240 12.9 38.6 0.00 0.00 0.00 39 1001.2
20260504175049 22 231 11.3 24.1 0.00 0.00 0.00 39 1001.3
20260504174938 22 246 12.9 24.1 0.00 0.00 0.00 37 1001.3
20260504174849 22 186 12.9 24.1 0.00 0.00 0.00 37 1001.3
20260504174738 22 158 11.3 22.5 0.00 0.00 0.00 37 1001.3
20260504174650 22 173 8.0 22.5 0.00 0.00 0.00 38 1001.3
20260504174555 22 279 8.0 24.1 0.00 0.00 0.00 38 1001.3
20260504174430 22 223 11.3 27.4 0.00 0.00 0.00 39 1001.3
20260504174340 22 196 11.3 27.4 0.00 0.00 0.00 38 1001.3
20260504174232 22 241 8.0 27.4 0.00 0.00 0.00 39 1001.3
20260504174142 22 172 6.4 27.4 0.00 0.00 0.00 39 1001.3
20260504174028 22 181 8.0 27.4 0.00 0.00 0.00 39 1001.3
20260504173938 22 108 11.3 27.4 0.00 0.00 0.00 39 1001.4
20260504173830 22 219 12.9 27.4 0.00 0.00 0.00 38 1001.4
20260504173741 22 292 14.5 27.4 0.00 0.00 0.00 38 1001.4
20260504173652 22 204 9.7 27.4 0.00 0.00 0.00 39 1001.4
20260504173541 22 292 8.0 20.9 0.00 0.00 0.00 38 1001.4
20260504173433 22 220 11.3 24.1 0.00 0.00 0.00 37 1001.4
20260504173343 22 219 9.7 24.1 0.00 0.00 0.00 38 1001.4
20260504173233 22 213 9.7 24.1 0.00 0.00 0.00 37 1001.4
20260504173143 22 243 8.0 24.1 0.00 0.00 0.00 37 1001.4
20260504173030 22 169 8.0 27.4 0.00 0.00 0.00 37 1001.4
20260504172940 22 262 9.7 27.4 0.00 0.00 0.00 37 1001.5
20260504172852 22 270 11.3 27.4 0.00 0.00 0.00 37 1001.5
20260504172742 22 218 11.3 32.2 0.00 0.00 0.00 36 1001.6
20260504172637 22 238 11.3 32.2 0.00 0.00 0.00 36 1001.5
20260504172542 22 210 12.9 32.2 0.00 0.00 0.00 36 1001.5
20260504172434 22 224 9.7 32.2 0.00 0.00 0.00 36 1001.5
20260504172327 22 224 12.9 32.2 0.00 0.00 0.00 36 1001.5
20260504172238 22 238 14.5 32.2 0.00 0.00 0.00 36 1001.5
20260504172129 22 221 12.9 32.2 0.00 0.00 0.00 36 1001.5
20260504172036 22 212 14.5 32.2 0.00 0.00 0.00 37 1001.5
20260504171948 22 219 14.5 32.2 0.00 0.00 0.00 36 1001.6
20260504171859 22 221 12.9 29.0 0.00 0.00 0.00 36 1001.7
20260504171749 22 166 9.7 29.0 0.00 0.00 0.00 38 1001.7
20260504171703 22 210 9.7 29.0 0.00 0.00 0.00 38 1001.7
20260504171528 22 159 11.3 29.0 0.00 0.00 0.00 36 1001.6
20260504171438 22 219 9.7 29.0 0.00 0.00 0.00 37 1001.7
20260504171352 22 169 11.3 29.0 0.00 0.00 0.00 37 1001.7
20260504171303 22 237 12.9 29.0 0.00 0.00 0.00 36 1001.8
20260504171132 22 191 11.3 29.0 0.00 0.00 0.00 37 1001.8
20260504171039 22 248 9.7 25.7 0.00 0.00 0.00 36 1001.7
20260504170930 22 211 12.9 25.7 0.00 0.00 0.00 37 1001.7
20260504170842 22 209 12.9 25.7 0.00 0.00 0.00 36 1001.7
20260504170753 22 262 9.7 25.7 0.00 0.00 0.00 36 1001.7
20260504170628 22 159 12.9 25.7 0.00 0.00 0.00 37 1001.7
20260504170533 22 215 11.3 25.7 0.00 0.00 0.00 36 1001.7
20260504170445 22 212 11.3 25.7 0.00 0.00 0.00 36 1001.8
20260504170357 22 244 9.7 25.7 0.00 0.00 0.00 35 1001.7
20260504170226 22 99 11.3 25.7 0.00 0.00 0.00 36 1001.8
20260504170138 22 174 11.3 25.7 0.00 0.00 0.00 36 1001.8
20260504160439 20 240 9.7 24.1 0.00 0.00 0.00 42 1002.6
20260504160330 20 207 6.4 24.1 0.00 0.00 0.00 43 1002.5
20260504160241 20 193 8.0 24.1 0.00 0.00 0.00 42 1002.5
20260504160157 20 218 11.3 24.1 0.00 0.00 0.00 42 1002.5
20260504160106 20 252 12.9 24.1 0.00 0.00 0.00 42 1002.4
20260504151132 18 153 6.4 17.7 0.00 0.00 0.00 51 1003.0
20260504151034 18 297 6.4 17.7 0.00 0.00 0.00 51 1003.0
20260504150928 18 202 8.0 17.7 0.00 0.00 0.00 51 1003.0
20260504150840 18 240 8.0 17.7 0.00 0.00 0.00 51 1003.1
20260504150730 18 209 8.0 17.7 0.00 0.00 0.00 51 1003.1
20260504150642 18 250 8.0 20.9 0.00 0.00 0.00 51 1003.1
20260504150525 18 238 8.0 20.9 0.00 0.00 0.00 51 1003.0
20260504150436 18 153 8.0 20.9 0.00 0.00 0.00 52 1003.1
20260504150328 18 105 8.0 20.9 0.00 0.00 0.00 51 1003.0
20260504150238 18 250 6.4 20.9 0.00 0.00 0.00 52 1003.1
20260504150153 18 139 9.7 20.9 0.00 0.00 0.00 52 1003.1
20260504150108 18 184 9.7 20.9 0.00 0.00 0.00 50 1003.1
20260504141234 16 192 6.4 17.7 0.00 0.00 0.00 59 1003.4
20260504141128 16 244 8.0 17.7 0.00 0.00 0.00 59 1003.6
20260504141035 16 216 6.4 17.7 0.00 0.00 0.00 59 1003.6
20260504140925 16 291 4.8 19.3 0.00 0.00 0.00 61 1003.4
20260504140834 16 135 6.4 19.3 0.00 0.00 0.00 61 1003.5
20260504140725 16 181 9.7 19.3 0.00 0.00 0.00 60 1003.4
20260504140635 16 141 9.7 19.3 0.00 0.00 0.00 60 1003.5
20260504140542 16 197 9.7 19.3 0.00 0.00 0.00 60 1003.6
20260504140432 16 186 9.7 19.3 0.00 0.00 0.00 61 1003.6
20260504140343 16 172 8.0 20.9 0.00 0.00 0.00 61 1003.5
20260504140234 16 278 9.7 20.9 0.00 0.00 0.00 61 1003.6
20260504140147 16 212 8.0 20.9 0.00 0.00 0.00 60 1003.6
20260504130734 14 224 8.0 16.1 0.00 0.00 0.00 67 1004.1
20260504130646 14 184 8.0 16.1 0.00 0.00 0.00 67 1004.2
20260504130531 14 246 8.0 16.1 0.00 0.00 0.00 66 1004.1
20260504130426 14 233 8.0 17.7 0.00 0.00 0.00 67 1004.0
20260504130338 14 243 8.0 17.7 0.00 0.00 0.00 66 1004.1
20260504130249 14 166 8.0 17.7 0.00 0.00 0.00 67 1004.1
20260504130138 14 197 6.4 17.7 0.00 0.00 0.00 67 1004.1
20260504120231 12 311 9.7 17.7 0.00 0.00 0.00 71 1004.0
20260504120143 12 281 11.3 17.7 0.00 0.00 0.00 71 1003.9
20260504110651 12 229 6.4 20.9 0.00 0.00 0.00 72 1003.5
20260504110556 12 207 8.0 20.9 0.00 0.00 0.00 72 1003.5
20260504110430 12 245 9.7 20.9 0.00 0.00 0.00 72 1003.4
20260504110342 12 214 9.7 20.9 0.00 0.00 0.00 72 1003.5
20260504110234 12 238 6.4 20.9 0.00 0.00 0.00 72 1003.5
20260504110145 12 112 4.8 20.9 0.00 0.00 0.00 72 1003.4
20260504100559 12 221 3.2 9.7 0.00 0.00 0.00 71 1003.4
20260504100449 12 188 4.8 9.7 0.00 0.00 0.00 71 1003.4
20260504100359 12 229 4.8 11.3 0.00 0.00 0.00 71 1003.4
20260504100251 12 227 4.8 11.3 0.00 0.00 0.00 71 1003.4
20260504100140 12 243 3.2 11.3 0.00 0.00 0.00 71 1003.4